Wind_Speed
25 26 26 25 25 26 26 26 28 27 27 27 27 28 29 30 31 31 31 31 32 34 35 35 36 36 37 37 38 39 40 41 42 44 44 45 45 45 46 46 47 47 48 48
24 25 25 25 25 26 27 27 27 27 27 26 26 26 28 29 30 31 31 32 32 33 34 35 36 37 37 38 39 39 40 41 42 43 44 45 45 45 46 46 46 46 47 48
24 23 24 24 24 25 26 27 27 28 26 25 26 26 27 28 29 30 31 33 33 34 35 36 36 36 37 38 39 40 40 41 42 42 43 44 45 45 46 46 46 46 47 47
26 25 25 25 25 25 26 26 27 28 27 26 27 27 28 28 29 30 31 32 33 34 34 35 36 36 37 38 39 40 41 42 42 43 44 44 45 46 46 46 47 47 47 47
27 26 26 25 25 26 27 27 27 27 27 27 27 28 29 30 30 31 31 31 32 33 34 35 35 36 37 38 39 40 40 41 43 44 44 45 45 46 47 47 47 48 48 49
26 27 27 27 27 27 28 28 28 27 27 27 27 28 28 29 30 31 31 31 32 33 34 35 36 36 37 38 39 40 41 41 42 43 44 44 45 46 46 47 47 48 48 49
27 28 27 26 27 27 27 28 28 28 27 28 28 28 28 28 29 30 31 31 32 33 34 34 35 36 37 37 39 40 41 42 42 43 43 44 44 45 46 47 47 48 48 49
27 28 28 27 27 27 27 27 27 28 28 29 29 29 29 30 30 30 31 31 32 33 34 34 34 35 36 37 38 39 40 41 41 42 43 43 44 45 45 46 47 47 47 47
27 27 27 27 28 28 28 28 29 29 29 29 30 30 30 31 31 32 32 32 32 33 34 34 35 35 35 36 37 38 39 39 40 41 42 43 44 44 45 45 45 46 46 47
28 27 27 27 27 28 29 29 29 29 29 29 30 31 31 32 32 32 32 33 33 33 33 34 34 35 35 35 36 36 37 39 39 40 41 42 43 43 44 44 44 45 45 45
29 28 28 27 28 29 30 29 29 29 29 29 30 31 32 32 32 33 34 34 34 33 33 33 34 34 34 35 36 36 37 38 39 39 40 40 41 41 41 42 42 42 42 43
29 29 29 28 28 29 29 29 30 30 29 29 30 31 31 32 33 33 34 34 33 33 32 32 33 33 34 35 35 36 37 38 38 38 38 38 39 39 39 40 40 41 41 41
28 28 28 28 28 28 29 29 29 29 29 29 30 30 31 31 32 32 33 33 32 32 32 32 32 33 33 34 35 36 36 37 37 37 37 37 37 37 38 38 39 39 39 39
28 28 28 29 29 29 29 29 29 29 30 30 30 30 30 31 31 31 30 30 31 31 31 32 32 32 33 33 34 35 35 35 36 36 36 35 35 35 36 37 37 38 39 39
28 27 28 28 28 29 29 30 30 30 30 30 30 30 30 29 29 29 28 28 29 30 30 31 31 32 32 33 33 33 34 34 34 34 34 34 34 35 35 36 37 37 38 39
28 28 28 28 29 29 30 30 30 30 30 30 29 29 29 29 28 28 28 28 29 29 30 30 31 31 31 32 32 32 32 32 32 32 33 33 33 34 35 35 35 36 37 38
27 27 27 28 28 29 30 30 31 30 30 30 29 29 28 28 27 27 28 28 29 29 30 30 30 30 30 31 31 31 31 31 31 32 32 32 33 34 34 35 36 36 37 38
26 26 26 27 28 29 29 29 30 30 30 30 29 28 28 28 28 28 28 29 29 29 30 29 30 30 30 30 31 31 31 32 31 32 32 33 34 34 35 35 36 36 37 38
25 26 26 27 27 27 27 28 28 28 27 27 27 27 27 27 27 27 28 29 29 29 28 29 29 29 30 31 31 31 31 31 31 32 32 33 34 35 35 35 36 36 37 37
26 26 27 27 27 27 27 27 27 27 26 26 25 25 26 26 26 27 27 27 28 28 28 29 29 29 30 30 31 32 32 32 32 33 33 34 34 35 35 36 36 37 37 37
27 27 27 27 27 27 27 27 26 26 26 25 25 25 25 26 26 27 27 27 28 28 29 29 30 31 31 31 31 32 32 33 33 34 35 35 35 35 35 36 36 37 37 37
26 27 27 27 27 27 26 26 27 27 26 26 26 26 26 27 27 28 28 28 29 29 30 30 31 31 31 32 32 32 32 33 34 34 35 35 35 35 35 35 36 36 37 37
26 26 26 26 26 26 26 26 26 26 26 26 27 27 27 27 28 28 28 29 29 30 30 31 31 31 32 32 32 32 33 33 34 34 34 34 34 35 35 35 36 36 36 37
26 26 26 26 26 26 26 26 26 26 26 26 26 27 27 27 28 28 28 29 30 30 30 31 31 31 32 32 33 33 33 34 34 34 34 34 34 35 35 36 36 36 37 37
26 26 26 25 25 26 26 26 26 26 26 26 26 26 27 27 28 28 29 29 30 30 30 30 31 31 32 32 33 34 34 34 34 35 35 35 36 36 36 36 36 36 37 37
25 24 24 25 25 25 25 26 26 26 26 27 27 27 27 27 28 29 29 30 30 30 29 30 30 31 32 33 33 34 34 35 35 36 36 36 36 36 36 36 36 36 36 36
24 24 24 24 24 24 25 25 25 25 25 26 26 26 27 27 28 28 29 29 29 29 30 31 31 32 32 33 33 34 34 34 35 35 35 35 34 34 34 34 34 34 34 34
Wind_Direction
282 280 278 275 272 269 269 271 274 275 273 271 269 265 263 263 263 264 263 263 262 262 260 260 260 259 259 258 257 257 258 258 258 258 258 260 260 260 261 261 260 261 262 263
283 280 278 274 270 269 270 271 274 276 275 272 269 267 265 265 265 264 264 264 264 264 263 262 261 260 259 259 259 259 259 260 260 260 260 261 261 260 261 261 261 262 262 263
281 280 277 272 270 270 270 271 273 274 273 270 268 269 268 267 267 267 267 266 265 266 265 264 263 262 262 261 260 259 260 261 261 261 262 262 261 261 261 261 262 262 262 263
283 280 277 278 275 272 272 273 273 271 271 271 271 271 270 269 269 269 270 269 268 268 267 266 264 264 264 263 262 262 262 263 263 263 263 263 263 262 262 262 263 263 263 263
284 282 281 280 280 277 274 273 272 272 272 273 273 272 272 273 272 272 272 271 270 270 270 268 266 265 265 265 263 263 263 263 264 264 264 264 265 265 264 264 264 264 265 265
284 282 281 283 282 280 279 275 273 274 273 274 274 273 272 273 273 273 272 271 270 270 271 270 269 267 267 266 265 264 264 264 265 266 266 266 265 265 265 266 266 266 266 266
283 283 283 285 284 284 282 281 278 276 276 276 275 274 273 273 273 273 273 272 271 270 271 271 270 269 269 268 267 267 267 266 266 266 267 267 267 266 267 267 267 267 267 268
284 284 285 286 285 285 283 281 280 280 279 278 277 277 275 275 275 274 273 272 272 272 273 272 271 270 270 270 270 269 269 268 267 267 267 268 267 267 267 268 268 268 268 269
282 284 283 284 283 282 281 281 281 282 281 280 279 277 275 275 275 274 274 274 274 274 274 272 272 271 271 271 271 270 269 269 269 268 268 269 268 268 268 268 268 269 269 269
280 282 283 283 282 281 282 282 283 283 284 283 280 277 276 276 275 275 275 275 275 275 274 273 272 272 272 271 271 272 271 271 271 271 271 270 269 269 268 268 269 270 270 270
280 282 283 284 282 282 282 282 282 284 283 282 282 280 277 276 276 276 277 277 276 276 275 274 273 273 273 273 273 273 273 273 273 273 273 272 271 270 270 270 270 271 271 271
283 283 283 284 284 282 282 282 282 283 283 282 283 282 280 278 278 279 279 278 277 277 276 276 275 275 274 274 274 275 274 275 275 275 274 273 272 271 271 271 271 271 271 272
285 284 281 281 282 282 282 283 284 284 285 286 285 285 284 282 282 280 279 278 277 277 277 277 277 276 276 276 276 276 276 276 276 275 275 274 273 272 272 272 272 272 272 272
285 284 281 280 281 282 282 284 285 287 287 287 287 287 286 285 284 282 280 279 279 278 278 278 278 279 278 278 278 278 278 277 276 276 275 275 274 274 274 274 273 272 272 272
284 284 282 281 281 282 283 285 287 288 289 288 288 288 288 287 286 285 283 282 281 280 280 280 280 280 279 280 280 280 280 279 278 277 276 276 276 276 276 275 275 273 272 272
282 281 281 281 282 283 284 286 287 287 287 287 288 288 288 288 287 286 283 282 282 282 282 282 282 281 280 281 282 281 281 280 280 279 278 277 278 278 278 277 276 274 274 273
283 281 280 281 283 285 285 286 286 286 287 287 287 288 287 287 287 286 285 284 284 284 284 283 282 282 281 282 282 282 282 281 281 280 279 279 279 279 279 279 278 277 276 276
285 284 284 285 286 286 286 287 286 286 287 287 287 287 287 287 287 287 286 286 286 286 287 285 284 283 283 283 283 284 283 283 282 282 281 280 280 280 280 279 279 278 278 277
286 286 287 288 288 288 288 287 286 287 287 288 288 288 288 288 288 288 288 288 288 288 287 287 287 286 285 285 284 284 284 285 284 284 283 283 282 282 281 280 280 280 280 280
289 288 287 287 287 287 287 286 286 286 287 288 289 289 289 289 290 291 291 290 289 288 287 288 288 289 289 288 286 285 285 285 285 285 285 285 283 282 281 281 281 282 281 281
291 290 288 287 288 288 288 287 286 286 287 287 288 289 289 290 291 292 292 291 290 290 289 289 289 289 290 289 288 287 286 286 286 286 286 286 285 283 283 283 283 283 283 282
292 291 289 288 287 288 289 289 288 287 287 287 288 289 290 291 292 292 292 291 291 291 291 291 290 290 289 290 289 289 289 289 288 288 288 287 286 285 285 284 285 284 284 283
292 292 291 290 289 289 290 291 291 290 289 289 289 289 290 292 293 293 293 293 293 292 292 292 291 291 291 291 291 291 291 291 290 290 289 288 287 286 286 286 286 286 285 283
293 292 291 290 290 290 290 290 291 291 292 292 291 291 291 292 293 293 293 294 294 294 294 294 293 292 292 292 292 293 293 292 292 291 290 289 288 288 288 288 288 287 286 285
293 293 292 291 290 290 291 292 291 291 292 293 292 292 293 293 293 293 294 294 295 295 295 295 295 294 294 294 295 295 295 294 293 292 291 290 289 289 289 289 289 288 288 287
294 293 292 291 291 292 293 293 293 292 292 293 293 293 293 294 294 294 294 295 295 296 297 297 297 298 297 297 297 297 297 296 295 294 293 292 290 290 289 289 289 289 288 288
293 293 293 293 293 294 295 295 294 294 295 295 294 294 295 296 296 296 296 296 297 298 299 299 300 301 301 300 299 299 298 298 297 296 295 294 293 292 291 291 290 290 289 289
Height
5550 5549 5547 5547 5547 5547 5546 5546 5546 5547 5547 5548 5548 5548 5549 5550 5551 5552 5553 5554 5555 5556 5557 5558 5560 5561 5562 5564 5565 5566 5567 5568 5569 5571 5572 5573 5574 5576 5577 5577 5578 5579 5580 5581
5544 5542 5541 5540 5540 5540 5540 5540 5540 5540 5540 5541 5540 5540 5541 5542 5543 5544 5544 5545 5546 5546 5547 5549 5550 5551 5552 5553 5554 5555 5556 5557 5558 5559 5560 5560 5562 5563 5564 5565 5565 5566 5567 5567
5537 5536 5534 5534 5535 5534 5534 5534 5533 5533 5534 5533 5533 5533 5533 5534 5534 5535 5535 5536 5536 5537 5538 5538 5539 5540 5541 5542 5543 5544 5545 5546 5546 5547 5548 5548 5549 5550 5551 5552 5553 5553 5554 5554
5530 5530 5528 5531 5529 5528 5527 5527 5526 5526 5526 5526 5526 5526 5525 5526 5526 5526 5526 5527 5527 5527 5528 5528 5529 5530 5530 5531 5532 5532 5533 5534 5534 5535 5535 5536 5537 5537 5538 5539 5539 5540 5540 5541
5523 5521 5521 5523 5522 5521 5520 5520 5520 5519 5518 5518 5518 5518 5518 5517 5517 5517 5517 5517 5517 5518 5518 5518 5519 5519 5519 5520 5520 5521 5521 5522 5522 5522 5523 5523 5524 5524 5525 5525 5526 5526 5526 5527
5516 5514 5514 5517 5515 5513 5513 5512 5512 5511 5511 5510 5510 5510 5511 5510 5509 5508 5508 5508 5508 5508 5508 5508 5508 5508 5508 5509 5509 5509 5509 5510 5510 5510 5510 5510 5510 5511 5511 5512 5512 5512 5512 5513
5510 5507 5508 5509 5507 5506 5507 5506 5504 5503 5503 5503 5502 5502 5502 5501 5500 5499 5499 5498 5498 5498 5498 5497 5497 5497 5497 5497 5497 5497 5497 5498 5498 5497 5497 5497 5497 5498 5498 5498 5498 5498 5499 5499
5503 5501 5504 5502 5500 5500 5499 5497 5496 5495 5495 5494 5494 5493 5493 5492 5491 5491 5490 5489 5489 5488 5488 5487 5487 5487 5487 5486 5486 5486 5485 5485 5485 5485 5485 5484 5484 5484 5484 5484 5484 5484 5484 5484
5497 5498 5496 5495 5493 5492 5491 5490 5489 5488 5487 5486 5485 5485 5484 5483 5483 5482 5481 5480 5479 5479 5478 5477 5477 5476 5476 5475 5474 5474 5473 5473 5473 5472 5472 5471 5471 5471 5470 5470 5470 5470 5470 5470
5489 5489 5488 5486 5485 5484 5482 5481 5481 5480 5479 5478 5477 5476 5475 5475 5474 5473 5472 5471 5470 5469 5468 5467 5466 5466 5465 5464 5463 5463 5462 5461 5460 5460 5459 5458 5458 5457 5457 5456 5456 5456 5455 5455
5481 5482 5480 5479 5477 5476 5475 5473 5472 5471 5470 5469 5468 5467 5466 5465 5464 5463 5462 5461 5460 5459 5458 5457 5456 5455 5454 5453 5452 5451 5450 5449 5448 5447 5446 5445 5444 5444 5443 5443 5442 5442 5442 5442
5474 5474 5472 5472 5470 5468 5467 5466 5465 5463 5462 5461 5460 5458 5457 5456 5455 5454 5452 5451 5450 5449 5448 5447 5446 5445 5444 5442 5441 5440 5439 5437 5436 5434 5433 5433 5432 5431 5430 5430 5429 5429 5428 5428
5467 5465 5464 5463 5462 5461 5459 5458 5457 5455 5454 5452 5451 5449 5448 5447 5445 5444 5442 5441 5440 5439 5438 5437 5436 5434 5433 5432 5430 5429 5427 5426 5424 5423 5422 5421 5420 5419 5419 5418 5417 5416 5416 5415
5459 5458 5456 5455 5454 5453 5451 5450 5448 5447 5445 5444 5442 5440 5439 5437 5435 5434 5433 5431 5430 5429 5428 5427 5426 5424 5422 5421 5420 5418 5416 5415 5413 5412 5411 5410 5409 5408 5407 5406 5406 5404 5404 5403
5452 5450 5449 5448 5446 5445 5443 5442 5440 5439 5437 5435 5434 5432 5430 5428 5427 5425 5424 5422 5421 5420 5418 5417 5415 5414 5412 5411 5409 5407 5406 5404 5403 5401 5400 5399 5398 5397 5396 5394 5393 5393 5392 5391
5443 5442 5440 5440 5438 5437 5435 5434 5432 5430 5429 5427 5425 5423 5421 5419 5418 5416 5415 5414 5412 5410 5409 5407 5405 5404 5402 5400 5399 5397 5396 5394 5392 5391 5389 5388 5387 5386 5384 5383 5382 5380 5380 5379
5435 5433 5432 5431 5430 5428 5426 5425 5423 5422 5420 5418 5416 5414 5413 5411 5410 5408 5407 5405 5403 5401 5399 5397 5396 5394 5392 5391 5389 5387 5386 5384 5382 5381 5379 5378 5376 5375 5373 5372 5370 5369 5368 5367
5427 5425 5424 5423 5421 5419 5418 5416 5414 5413 5411 5409 5408 5406 5404 5403 5401 5400 5398 5396 5394 5392 5390 5388 5386 5384 5383 5381 5379 5378 5376 5374 5372 5370 5369 5367 5366 5364 5362 5361 5359 5357 5356 5354
5419 5417 5416 5414 5412 5410 5409 5407 5406 5404 5403 5401 5399 5397 5396 5394 5393 5391 5389 5387 5385 5383 5381 5379 5377 5375 5373 5371 5369 5368 5366 5364 5362 5360 5358 5356 5355 5353 5351 5349 5348 5346 5344 5342
5411 5410 5408 5406 5404 5402 5401 5399 5398 5396 5394 5393 5391 5390 5388 5386 5384 5382 5380 5378 5376 5374 5372 5370 5368 5366 5363 5361 5360 5358 5356 5354 5352 5350 5348 5346 5344 5342 5340 5338 5336 5334 5332 5330
5403 5402 5400 5398 5396 5394 5393 5391 5389 5388 5386 5385 5383 5382 5380 5378 5376 5374 5372 5370 5367 5365 5363 5361 5359 5356 5354 5352 5350 5347 5345 5343 5341 5339 5337 5335 5332 5330 5328 5326 5324 5322 5320 5318
5396 5394 5392 5390 5388 5386 5384 5383 5381 5379 5378 5376 5375 5373 5371 5370 5368 5365 5363 5361 5359 5356 5354 5351 5349 5347 5344 5342 5340 5337 5335 5332 5330 5328 5325 5323 5321 5319 5316 5314 5312 5310 5308 5306
5388 5386 5384 5382 5380 5378 5376 5375 5373 5371 5370 5368 5367 5365 5363 5361 5359 5357 5355 5352 5350 5347 5345 5342 5340 5337 5335 5332 5330 5327 5324 5322 5319 5317 5314 5312 5309 5307 5305 5303 5300 5298 5296 5294
5380 5378 5376 5374 5372 5370 5368 5367 5365 5363 5361 5360 5358 5356 5354 5352 5350 5348 5346 5343 5341 5338 5335 5333 5330 5327 5325 5322 5320 5317 5314 5311 5308 5306 5303 5300 5298 5296 5293 5291 5288 5286 5283 5281
5372 5370 5368 5366 5364 5362 5360 5358 5357 5355 5353 5352 5350 5348 5346 5344 5342 5339 5337 5334 5332 5329 5326 5323 5321 5318 5315 5312 5309 5306 5303 5300 5297 5295 5292 5289 5286 5284 5281 5279 5276 5274 5271 5269
5364 5362 5360 5359 5357 5355 5353 5351 5349 5347 5345 5343 5342 5340 5337 5335 5333 5330 5328 5326 5323 5320 5317 5314 5311 5308 5305 5302 5299 5296 5292 5289 5286 5283 5280 5277 5274 5272 5269 5266 5264 5261 5259 5256
5357 5355 5353 5351 5349 5347 5345 5343 5341 5339 5337 5335 5333 5331 5329 5327 5324 5322 5319 5317 5314 5311 5308 5305 5302 5299 5295 5292 5288 5285 5282 5278 5275 5272 5268 5265 5262 5259 5257 5254 5252 5249 5247 5244